Location: Rokycany
(49.7330°N, 13.6000°E)
Time: 20:37:12
(UTC+02:00)

ISS - Pass Details

Date: 30 March 2019
Orbit: 408 x 410 km, 51.6° (Epoch: 26 April)

Event Time Altitude Azimuth Distance (km) Brightness Sun altitude
Rises 20:49:42 0° 286° (WNW) 2,339 1.3 -21.2°
Reaches altitude 10° 20:51:47 10° 287° (WNW) 1,475 0.0 -21.5°
Enters shadow 20:54:32 58° 296° (WNW) 483 -3.3 -21.9°
